Location: Unspecified
(34.4950°S, 58.5160°W)
Time: 00:29:38
(UTC+00:00)

Cosmos 2278 - Pass Details

Date: 19 April 2026
Orbit: 836 x 852 km, 71.1° (Epoch: 16 May)

Event Time Altitude Azimuth Distance (km) Brightness Sun altitude
Rises 08:55:04 0° 338° (NNW) 3,402 6.6 -18.3°
Reaches altitude 10° 08:57:30 10° 337° (NNW) 2,472 5.9 -17.8°
Maximum altitude 09:03:12 82° 250° (WSW) 867 3.6 -16.6°
Drops below altitude 10° 09:08:56 10° 161° (SSE) 2,491 6.3 -15.4°
Sets 09:11:24 0° 160° (SSE) 3,431 7.1 -14.9°
